MOLNIYA 1-91

Last updated on Jan. 26, 2021, 8:12 a.m. UTC

1 25485U 98054A   21025.49286752  .00000225  00000-0  22925-2 0  9994
2 25485  62.9361 232.3476 6981459 290.8515  25.9936  2.36442484166376
UTC
Height (km)
Latitude
Longitude
Inclination
Orbital Period
UTC large
Height (km)
Speed (km/s)
/
Latitude / Longitude
Inclination (degrees)
Orbital Period (minutes)
Azimuth
Elevation
Range (km)
Doppler Factor
iOS Compass Heading
iOS Angle

Next 30 passes for location: Hong Kong

Rise time Rise Azimuth (degrees) Set time Set Azimuth (degrees) Duration Max altitude (degrees)

No matching passes for this satellites